CFG2JP EDDM-EDDF

Flight info

Callsign CFG2JP
Flight time 0h 36m
Altitude 24000
Route GIVMI1N GIVMI Y101 ERNAS T161 DEBHI DEBHI1B
Aircraft A20N/M-SBDE3FGHIJ1J4J7LORVWXYZ/SB2D1G1

Departure

Time 2026-05-05 16:21
Airport Munich Airport (EDDM)

Arrival

Time 2026-05-05 16:57
Airport Frankfurt Main Airport (EDDF)
Time Latitude Longitude Altitude Speed Heading
2026-05-05 15:49 48.34950 11.78380 1466 ft 0 kts 82°
2026-05-05 15:58 48.34949 11.78370 1466 ft 2 kts 84°
2026-05-05 15:58 48.34947 11.78346 1438 ft 2 kts 84°
2026-05-05 15:59 48.34946 11.78321 1470 ft 2 kts 85°
2026-05-05 15:59 48.34944 11.78297 1460 ft 2 kts 66°
2026-05-05 15:59 48.34934 11.78278 1457 ft 2 kts 25°
2026-05-05 15:59 48.34918 11.78271 1457 ft 2 kts
2026-05-05 16:00 48.34905 11.78269 1466 ft 1 kts
2026-05-05 16:00 48.34902 11.78269 1466 ft 0 kts 359°
2026-05-05 16:05 48.34914 11.78268 1458 ft 3 kts 359°
2026-05-05 16:05 48.34940 11.78267 1464 ft 5 kts 355°
2026-05-05 16:05 48.34983 11.78260 1459 ft 7 kts 354°
2026-05-05 16:06 48.35041 11.78250 1461 ft 10 kts 354°
2026-05-05 16:06 48.35116 11.78237 1461 ft 12 kts 352°
2026-05-05 16:06 48.35197 11.78199 1462 ft 12 kts 313°
2026-05-05 16:06 48.35205 11.78078 1466 ft 12 kts 261°
2026-05-05 16:07 48.35192 11.77952 1466 ft 12 kts 264°
2026-05-05 16:07 48.35202 11.77827 1459 ft 13 kts 306°
2026-05-05 16:07 48.35285 11.77790 1464 ft 14 kts 352°
2026-05-05 16:07 48.35383 11.77772 1458 ft 14 kts 354°
2026-05-05 16:08 48.35473 11.77757 1465 ft 14 kts 354°
2026-05-05 16:08 48.35572 11.77741 1466 ft 15 kts 353°
2026-05-05 16:08 48.35667 11.77725 1466 ft 14 kts 353°
2026-05-05 16:08 48.35771 11.77706 1459 ft 16 kts 351°
2026-05-05 16:09 48.35888 11.77685 1460 ft 17 kts 354°
2026-05-05 16:09 48.35971 11.77758 1466 ft 15 kts 82°
2026-05-05 16:09 48.35985 11.77928 1466 ft 18 kts 83°
2026-05-05 16:09 48.36001 11.78145 1466 ft 24 kts 84°
2026-05-05 16:10 48.36015 11.78325 1467 ft 27 kts 83°
2026-05-05 16:10 48.36037 11.78618 1462 ft 29 kts 83°
2026-05-05 16:10 48.36060 11.78919 1463 ft 29 kts 83°
2026-05-05 16:10 48.36083 11.79222 1467 ft 29 kts 83°
2026-05-05 16:11 48.36105 11.79494 1465 ft 20 kts 83°
2026-05-05 16:11 48.36154 11.80142 1467 ft 21 kts 83°
2026-05-05 16:12 48.36171 11.80363 1464 ft 20 kts 83°
2026-05-05 16:12 48.36203 11.80775 1467 ft 19 kts 84°
2026-05-05 16:13 48.36247 11.81334 1466 ft 19 kts 84°
2026-05-05 16:13 48.36261 11.81524 1466 ft 17 kts 83°
2026-05-05 16:13 48.36274 11.81712 1462 ft 19 kts 84°
2026-05-05 16:14 48.36389 11.82014 1461 ft 16 kts 17°
2026-05-05 16:14 48.36542 11.81993 1462 ft 0 kts 352°
2026-05-05 16:18 48.36556 11.81991 1461 ft 4 kts 352°
2026-05-05 16:19 48.36607 11.81981 1466 ft 10 kts 352°
2026-05-05 16:19 48.36674 11.81962 1459 ft 6 kts 330°
2026-05-05 16:19 48.36678 11.81948 1463 ft 0 kts 276°
2026-05-05 16:20 48.36618 11.81194 1465 ft 93 kts 264°
2026-05-05 16:20 48.36403 11.78456 1990 ft 143 kts 262°
2026-05-05 16:21 48.36259 11.75341 3126 ft 153 kts 269°
2026-05-05 16:22 48.35636 11.69733 4617 ft 212 kts 270°
2026-05-05 16:22 48.36746 11.65305 5854 ft 244 kts 302°
2026-05-05 16:23 48.38628 11.60832 7452 ft 255 kts 299°
2026-05-05 16:23 48.39559 11.58552 8361 ft 257 kts 298°
2026-05-05 16:23 48.41451 11.53900 10061 ft 263 kts 298°
2026-05-05 16:24 48.42400 11.51558 10786 ft 270 kts 298°
2026-05-05 16:24 48.43414 11.49046 11208 ft 290 kts 298°
2026-05-05 16:24 48.45806 11.44033 12936 ft 303 kts 319°
2026-05-05 16:25 48.47706 11.42598 13758 ft 313 kts 343°
2026-05-05 16:25 48.52215 11.41325 14461 ft 354 kts 348°
2026-05-05 16:25 48.54755 11.40670 14690 ft 375 kts 348°
2026-05-05 16:26 48.59910 11.39301 16123 ft 383 kts 348°
2026-05-05 16:26 48.65230 11.37843 17452 ft 394 kts 348°
2026-05-05 16:27 48.67925 11.37030 18184 ft 396 kts 343°
2026-05-05 16:27 48.70533 11.35643 18790 ft 398 kts 333°
2026-05-05 16:27 48.72971 11.33617 19396 ft 400 kts 324°
2026-05-05 16:27 48.75292 11.31242 19999 ft 404 kts 324°
2026-05-05 16:28 48.77642 11.28856 20556 ft 409 kts 324°
2026-05-05 16:28 48.80022 11.26447 21182 ft 413 kts 324°
2026-05-05 16:28 48.82422 11.24017 21815 ft 417 kts 324°
2026-05-05 16:28 48.84792 11.21441 22424 ft 420 kts 318°
2026-05-05 16:29 48.86973 11.18464 23024 ft 423 kts 315°
2026-05-05 16:29 48.89124 11.15458 23557 ft 427 kts 315°
2026-05-05 16:29 48.91322 11.12400 23741 ft 429 kts 315°
2026-05-05 16:29 48.93529 11.09331 23809 ft 429 kts 315°
2026-05-05 16:30 48.95736 11.06256 23812 ft 429 kts 315°
2026-05-05 16:30 48.97933 11.03188 23830 ft 429 kts 315°
2026-05-05 16:30 49.00127 11.00110 23810 ft 428 kts 315°
2026-05-05 16:30 49.02325 10.97025 23839 ft 430 kts 315°
2026-05-05 16:31 49.04528 10.93928 23837 ft 430 kts 315°
2026-05-05 16:31 49.06728 10.90832 23838 ft 430 kts 315°
2026-05-05 16:31 49.08897 10.87775 23836 ft 430 kts 315°
2026-05-05 16:31 49.11095 10.84671 23832 ft 430 kts 315°
2026-05-05 16:32 49.13292 10.81564 23855 ft 430 kts 315°
2026-05-05 16:32 49.15485 10.78458 23856 ft 430 kts 315°
2026-05-05 16:32 49.17676 10.75351 23856 ft 430 kts 315°
2026-05-05 16:32 49.19870 10.72236 23856 ft 430 kts 315°
2026-05-05 16:33 49.22007 10.69039 23842 ft 429 kts 312°
2026-05-05 16:33 49.24074 10.65753 23842 ft 428 kts 311°
2026-05-05 16:33 49.26100 10.62494 23838 ft 428 kts 311°
2026-05-05 16:33 49.28159 10.59193 23841 ft 429 kts 311°
2026-05-05 16:34 49.30227 10.55899 23841 ft 429 kts 311°
2026-05-05 16:34 49.32301 10.52609 23841 ft 429 kts 311°
2026-05-05 16:34 49.34378 10.49318 23841 ft 429 kts 311°
2026-05-05 16:34 49.36370 10.45911 23827 ft 427 kts 305°
2026-05-05 16:35 49.38095 10.42209 23824 ft 426 kts 302°
2026-05-05 16:35 49.39796 10.38468 23680 ft 427 kts 302°
2026-05-05 16:35 49.41500 10.34742 23463 ft 425 kts 302°
2026-05-05 16:35 49.43174 10.31084 23225 ft 422 kts 302°
2026-05-05 16:36 49.44852 10.27403 22949 ft 419 kts 303°
2026-05-05 16:36 49.46521 10.23735 22680 ft 417 kts 302°
2026-05-05 16:36 49.48179 10.20083 22412 ft 416 kts 302°
2026-05-05 16:36 49.49838 10.16424 22144 ft 414 kts 302°
2026-05-05 16:37 49.51486 10.12784 21880 ft 413 kts 302°
2026-05-05 16:37 49.53105 10.09205 21617 ft 411 kts 302°
2026-05-05 16:37 49.54734 10.05596 21359 ft 409 kts 302°
2026-05-05 16:37 49.56354 10.02005 21102 ft 407 kts 302°
2026-05-05 16:38 49.57967 9.98423 20722 ft 406 kts 302°
2026-05-05 16:38 49.59629 9.94889 20101 ft 406 kts 309°
2026-05-05 16:38 49.61688 9.91982 19627 ft 397 kts 324°
2026-05-05 16:38 49.64107 9.89875 19382 ft 404 kts 331°
2026-05-05 16:39 49.66604 9.87841 19128 ft 405 kts 331°
2026-05-05 16:39 49.69085 9.85843 18902 ft 399 kts 331°
2026-05-05 16:39 49.71553 9.83871 18679 ft 396 kts 331°
2026-05-05 16:39 49.73945 9.81967 18582 ft 386 kts 332°
2026-05-05 16:40 49.76293 9.80102 18450 ft 372 kts 331°
2026-05-05 16:40 49.78555 9.78303 18335 ft 359 kts 331°
2026-05-05 16:40 49.80739 9.76566 18210 ft 347 kts 331°
2026-05-05 16:40 49.82868 9.74869 17918 ft 341 kts 331°
2026-05-05 16:41 49.84973 9.73187 17643 ft 341 kts 331°
2026-05-05 16:41 49.87087 9.71495 17370 ft 342 kts 331°
2026-05-05 16:41 49.89203 9.69802 17114 ft 340 kts 331°
2026-05-05 16:41 49.91302 9.68121 16742 ft 339 kts 331°
2026-05-05 16:42 49.93405 9.66435 16275 ft 339 kts 331°
2026-05-05 16:42 49.94798 9.65318 15966 ft 338 kts 331°
2026-05-05 16:42 49.97562 9.63098 15365 ft 337 kts 331°
2026-05-05 16:42 49.99661 9.61411 14896 ft 342 kts 332°
2026-05-05 16:43 50.01775 9.59709 14429 ft 342 kts 332°
2026-05-05 16:43 50.03886 9.58009 14087 ft 337 kts 332°
2026-05-05 16:43 50.05943 9.56352 13815 ft 330 kts 332°
2026-05-05 16:43 50.07990 9.54700 13218 ft 333 kts 332°
2026-05-05 16:44 50.10067 9.53023 12536 ft 338 kts 332°
2026-05-05 16:44 50.12223 9.51278 12081 ft 361 kts 332°
2026-05-05 16:44 50.14614 9.49342 11552 ft 375 kts 332°
2026-05-05 16:44 50.16804 9.47569 11064 ft 379 kts 332°
2026-05-05 16:45 50.19138 9.45676 10595 ft 375 kts 332°
2026-05-05 16:45 50.21362 9.43723 10415 ft 358 kts 322°
2026-05-05 16:45 50.23025 9.40991 10224 ft 341 kts 301°
2026-05-05 16:45 50.23903 9.37642 9870 ft 330 kts 278°
2026-05-05 16:46 50.23890 9.34138 9477 ft 319 kts 255°
2026-05-05 16:46 50.23184 9.30947 9056 ft 312 kts 245°
2026-05-05 16:46 50.22331 9.27859 8622 ft 307 kts 245°
2026-05-05 16:46 50.21500 9.24808 8224 ft 303 kts 246°
2026-05-05 16:47 50.20725 9.21781 7814 ft 299 kts 247°
2026-05-05 16:47 50.19984 9.18737 7357 ft 298 kts 248°
2026-05-05 16:47 50.19269 9.15704 6886 ft 297 kts 249°
2026-05-05 16:47 50.18622 9.12690 6420 ft 296 kts 250°
2026-05-05 16:48 50.17968 9.09660 5953 ft 294 kts 249°
2026-05-05 16:48 50.17274 9.06662 5465 ft 292 kts 248°
2026-05-05 16:48 50.16578 9.03726 5257 ft 282 kts 248°
2026-05-05 16:48 50.15912 9.00920 5135 ft 269 kts 248°
2026-05-05 16:49 50.15293 8.98314 5006 ft 250 kts 248°
2026-05-05 16:49 50.14710 8.95860 4993 ft 226 kts 248°
2026-05-05 16:49 50.14190 8.93671 4990 ft 206 kts 247°
2026-05-05 16:49 50.13720 8.91693 5020 ft 185 kts 247°
2026-05-05 16:50 50.13297 8.89916 4989 ft 165 kts 247°
2026-05-05 16:50 50.13029 8.88793 4985 ft 167 kts 247°
2026-05-05 16:50 50.12497 8.86563 4825 ft 165 kts 248°
2026-05-05 16:50 50.12107 8.84922 4597 ft 154 kts 248°
2026-05-05 16:51 50.11752 8.83427 4392 ft 142 kts 248°
2026-05-05 16:51 50.11418 8.82029 4208 ft 133 kts 247°
2026-05-05 16:51 50.11110 8.80733 4036 ft 130 kts 247°
2026-05-05 16:51 50.10786 8.79378 3864 ft 134 kts 247°
2026-05-05 16:52 50.10568 8.78463 3746 ft 133 kts 247°
2026-05-05 16:52 50.10153 8.76720 3515 ft 132 kts 248°
2026-05-05 16:52 50.09825 8.75345 3340 ft 132 kts 248°
2026-05-05 16:52 50.09513 8.74034 3165 ft 128 kts 247°
2026-05-05 16:53 50.09200 8.72726 2989 ft 130 kts 248°
2026-05-05 16:53 50.08884 8.71396 2823 ft 131 kts 249°
2026-05-05 16:53 50.08569 8.70075 2645 ft 129 kts 248°
2026-05-05 16:53 50.08265 8.68799 2479 ft 127 kts 248°
2026-05-05 16:54 50.07957 8.67511 2312 ft 127 kts 248°
2026-05-05 16:54 50.07649 8.66216 2138 ft 127 kts 248°
2026-05-05 16:54 50.07341 8.64923 1968 ft 126 kts 248°
2026-05-05 16:54 50.07035 8.63644 1800 ft 126 kts 248°
2026-05-05 16:55 50.06730 8.62367 1634 ft 127 kts 249°
2026-05-05 16:55 50.06420 8.61066 1458 ft 128 kts 249°
2026-05-05 16:55 50.06115 8.59771 1237 ft 127 kts 248°
2026-05-05 16:55 50.05801 8.58497 1063 ft 128 kts 249°
2026-05-05 16:56 50.05501 8.57219 921 ft 126 kts 248°
2026-05-05 16:56 50.05204 8.55948 748 ft 126 kts 248°
2026-05-05 16:56 50.04898 8.54666 580 ft 127 kts 247°
2026-05-05 16:56 50.04590 8.53402 424 ft 125 kts 248°
2026-05-05 16:57 50.04279 8.52117 354 ft 123 kts 249°
2026-05-05 16:57 50.04071 8.51249 352 ft 43 kts 249°
2026-05-05 16:57 50.03924 8.50942 349 ft 29 kts 219°
2026-05-05 16:57 50.03829 8.50833 351 ft 15 kts 198°
2026-05-05 16:58 50.03781 8.50881 355 ft 0 kts 110°
2026-05-05 16:58 50.03780 8.50885 355 ft 1 kts 107°
2026-05-05 16:58 50.03783 8.50920 351 ft 9 kts 84°
2026-05-05 16:59 50.03809 8.51046 352 ft 15 kts 68°
2026-05-05 16:59 50.03851 8.51212 347 ft 18 kts 69°
2026-05-05 16:59 50.03881 8.51341 357 ft 20 kts 70°
2026-05-05 16:59 50.03947 8.51621 350 ft 22 kts 69°
2026-05-05 17:00 50.04002 8.51850 349 ft 21 kts 69°
2026-05-05 17:00 50.04038 8.51996 354 ft 22 kts 69°
2026-05-05 17:00 50.04089 8.52219 350 ft 23 kts 70°
2026-05-05 17:00 50.04147 8.52453 350 ft 24 kts 70°
2026-05-05 17:01 50.04205 8.52699 350 ft 24 kts 70°
2026-05-05 17:01 50.04264 8.52938 349 ft 25 kts 69°
2026-05-05 17:01 50.04320 8.53178 355 ft 23 kts 70°
2026-05-05 17:01 50.04378 8.53417 353 ft 25 kts 69°
2026-05-05 17:02 50.04406 8.53681 347 ft 23 kts 84°
2026-05-05 17:02 50.04419 8.53893 347 ft 14 kts 84°
2026-05-05 17:02 50.04431 8.54059 351 ft 15 kts 84°
2026-05-05 17:02 50.04442 8.54240 357 ft 18 kts 84°
2026-05-05 17:03 50.04453 8.54437 347 ft 17 kts 90°
2026-05-05 17:03 50.04419 8.54619 350 ft 19 kts 120°
2026-05-05 17:03 50.04345 8.54741 349 ft 13 kts 146°
2026-05-05 17:03 50.04259 8.54803 353 ft 11 kts 162°
2026-05-05 17:04 50.04178 8.54846 353 ft 14 kts 154°
2026-05-05 17:04 50.04093 8.54901 350 ft 10 kts 161°
2026-05-05 17:04 50.04016 8.54946 349 ft 13 kts 160°
2026-05-05 17:04 50.03922 8.55000 355 ft 13 kts 161°
2026-05-05 17:05 50.03907 8.55008 349 ft 0 kts 160°
2026-05-05 17:07 50.03896 8.55014 353 ft 4 kts 160°
2026-05-05 17:07 50.03860 8.55034 353 ft 7 kts 157°
2026-05-05 17:07 50.03850 8.55112 347 ft 9 kts 74°
2026-05-05 17:07 50.03875 8.55228 353 ft 13 kts 69°
2026-05-05 17:08 50.03905 8.55351 347 ft 7 kts 70°
2026-05-05 17:08 50.03906 8.55354 347 ft 0 kts 70°
2026-05-05 17:09 50.03909 8.55366 347 ft 3 kts 70°
2026-05-05 17:10 50.03920 8.55416 349 ft 7 kts 70°
2026-05-05 17:10 50.03941 8.55505 354 ft 11 kts 70°
2026-05-05 17:10 50.03971 8.55633 354 ft 14 kts 70°
2026-05-05 17:10 50.04010 8.55795 357 ft 17 kts 69°
2026-05-05 17:11 50.04063 8.56013 349 ft 21 kts 71°
2026-05-05 17:11 50.04108 8.56200 352 ft 21 kts 69°
2026-05-05 17:11 50.04160 8.56418 349 ft 20 kts 69°
2026-05-05 17:11 50.04213 8.56639 354 ft 23 kts 69°
2026-05-05 17:12 50.04266 8.56858 349 ft 23 kts 69°
2026-05-05 17:12 50.04323 8.57104 349 ft 25 kts 71°
2026-05-05 17:12 50.04382 8.57353 348 ft 24 kts 70°
2026-05-05 17:12 50.04428 8.57536 355 ft 14 kts 69°
2026-05-05 17:13 50.04463 8.57688 353 ft 16 kts 70°
2026-05-05 17:13 50.04506 8.57869 351 ft 19 kts 69°
2026-05-05 17:13 50.04525 8.57946 350 ft 0 kts 69°
2026-05-05 17:16 50.04527 8.57955 349 ft 3 kts 69°
2026-05-05 17:16 50.04540 8.58006 348 ft 7 kts 69°
2026-05-05 17:16 50.04559 8.58088 352 ft 9 kts 70°
2026-05-05 17:16 50.04582 8.58189 353 ft 11 kts 69°
2026-05-05 17:17 50.04612 8.58310 356 ft 13 kts 70°
2026-05-05 17:17 50.04645 8.58447 356 ft 14 kts 69°
2026-05-05 17:17 50.04680 8.58598 353 ft 15 kts 69°
2026-05-05 17:17 50.04722 8.58760 349 ft 17 kts 66°
2026-05-05 17:18 50.04766 8.58933 354 ft 18 kts 70°
2026-05-05 17:18 50.04800 8.59074 351 ft 0 kts 67°
2026-05-05 17:18 50.04813 8.59091 350 ft 5 kts 25°
2026-05-05 17:18 50.04851 8.59063 353 ft 7 kts 339°
2026-05-05 17:19 50.04881 8.59047 353 ft 0 kts 341°
2026-05-05 17:19 50.04880 8.59047 353 ft 0 kts 341°